Wind_Speed
10 10 10 10 9 8 8 6 5 5 6 5 4 4 5 5 5 6 6 7 8 8 9 9 8 8 8 7 5 5 4 5 4 3 2 2 2 3 3 3 2 2 3 3
11 11 11 12 11 10 9 8 7 8 8 6 5 5 6 6 5 6 6 7 8 8 8 8 8 8 7 7 6 5 4 4 3 3 2 2 2 2 3 3 2 2 2 3
12 12 13 12 11 10 9 10 9 9 9 8 7 6 7 6 6 6 7 7 8 8 7 8 8 7 6 6 6 6 5 4 4 2 1 1 1 1 0 1 2 2 2 2
14 14 13 13 12 11 10 10 10 10 10 9 8 7 8 7 7 7 8 8 8 9 8 8 8 7 6 6 6 6 5 5 4 2 1 1 1 1 1 1 1 1 2 2
15 15 14 13 13 12 11 11 12 11 10 10 9 8 8 8 8 9 9 8 9 9 8 7 8 8 7 6 6 6 5 4 4 3 3 3 3 2 2 2 2 3 3 2
17 16 15 15 14 13 12 11 11 11 10 11 10 9 8 9 9 9 9 9 9 9 9 8 8 8 7 6 6 6 5 5 4 4 4 3 3 3 3 3 3 3 3 3
18 18 17 16 16 15 13 12 11 11 12 13 12 11 10 10 10 9 9 10 10 10 9 9 9 9 8 7 6 6 6 5 4 5 4 4 4 4 4 4 4 4 4 4
19 19 19 18 17 17 15 14 14 14 14 14 14 13 12 11 11 10 10 10 11 11 10 9 10 10 9 8 7 7 7 7 6 6 6 6 6 6 5 5 5 5 6 6
20 21 21 20 19 18 18 17 17 17 17 16 16 15 14 12 12 11 11 11 12 12 11 11 11 11 11 11 10 9 9 8 8 8 8 8 7 8 7 7 7 7 7 8
22 22 23 22 21 21 20 19 18 17 18 17 17 16 16 14 13 13 12 12 13 13 12 12 12 12 12 12 12 11 11 10 10 10 10 10 10 10 9 9 9 9 9 10
23 22 23 23 23 22 21 21 21 20 20 18 17 17 17 16 15 14 13 14 14 14 14 14 14 13 13 13 13 13 13 12 12 12 12 12 12 12 12 11 11 12 12 12
23 23 23 23 23 22 22 22 22 21 21 20 19 20 18 18 16 16 15 15 15 15 15 16 15 15 15 14 14 15 15 14 14 14 15 15 14 14 14 13 14 14 15 15
23 23 22 21 22 22 22 22 22 22 22 21 20 20 19 19 18 17 17 17 17 17 17 17 17 17 17 16 15 15 16 15 16 16 17 17 17 16 16 16 16 16 16 17
23 22 22 21 21 22 23 23 23 23 23 23 22 22 21 20 20 19 17 18 19 19 19 19 18 18 18 18 17 16 16 17 18 18 18 18 18 19 19 18 18 18 18 18
22 22 23 23 23 24 25 24 24 23 23 23 23 23 22 21 21 20 18 18 20 20 20 20 20 20 20 19 18 18 17 18 18 18 18 18 19 20 20 20 21 21 20 21
23 24 24 24 24 25 25 25 25 24 23 23 23 23 22 23 22 22 21 20 20 20 21 21 21 21 20 20 20 20 19 19 19 19 20 20 20 21 21 22 23 23 23 24
24 24 24 24 24 25 25 24 24 24 23 23 24 23 23 24 24 23 23 22 21 22 22 22 22 22 22 22 22 22 21 21 21 21 21 21 22 22 22 23 23 24 25 26
25 25 25 24 25 26 23 24 24 24 25 24 25 25 24 24 24 24 23 23 23 23 24 24 23 23 23 23 23 23 23 22 21 21 21 22 23 23 24 24 25 26 27 28
25 25 25 25 25 25 24 24 24 24 24 25 25 24 24 24 24 24 24 24 23 23 23 23 23 23 23 23 24 24 24 23 22 22 23 24 24 25 26 27 27 28 28 29
25 26 26 26 25 24 24 23 23 24 25 24 25 25 24 24 25 24 24 24 24 24 24 24 24 24 23 23 24 25 24 24 24 24 24 25 25 26 26 27 28 29 29 30
24 25 26 26 25 24 24 23 23 25 25 25 25 24 25 25 25 25 25 25 25 24 24 25 25 24 24 25 26 25 25 25 25 25 25 26 26 27 27 28 29 29 30 30
24 25 25 25 25 25 23 22 23 24 24 24 24 24 25 24 25 26 26 26 25 25 25 25 25 25 25 26 26 26 25 25 25 25 26 26 27 28 28 29 29 29 30 30
25 25 25 25 24 24 23 23 23 23 23 23 24 24 25 25 25 26 26 26 26 26 26 26 25 25 25 24 25 25 25 25 26 26 27 27 27 28 28 29 30 30 30 31
25 25 26 25 24 23 24 24 24 23 23 24 25 25 25 25 25 26 26 26 26 25 25 25 25 24 25 25 25 25 24 25 25 26 27 28 28 29 29 30 30 30 30 30
25 25 25 25 24 24 23 23 23 24 25 25 25 25 26 25 25 25 25 25 26 26 25 25 25 25 25 24 24 24 24 24 25 26 27 28 28 29 30 30 30 31 30 31
24 24 24 23 23 23 22 23 23 24 24 25 25 25 25 25 25 25 25 25 26 25 25 24 24 24 23 24 24 23 23 24 24 25 25 27 28 29 29 29 30 30 31 31
Wind_Direction
216 217 218 224 226 230 235 238 248 266 279 288 292 306 323 332 340 344 354 1 3 6 8 8 11 16 19 20 23 29 34 36 31 42 64 96 121 126 140 151 158 151 155 171
221 220 223 226 231 236 239 242 248 263 278 286 284 297 309 313 316 322 332 341 346 352 357 356 359 4 9 12 14 18 18 15 14 23 48 69 98 142 164 180 185 197 188 177
227 227 227 232 237 239 242 243 247 256 271 278 281 287 299 304 305 311 321 329 335 337 340 343 346 351 356 1 5 11 11 1 346 340 20 53 80 63 127 157 183 193 192 193
229 231 231 234 234 238 242 243 246 253 265 274 276 279 288 293 297 299 307 318 326 325 325 328 333 337 340 345 351 359 4 1 343 325 319 319 317 325 318 294 242 241 233 229
231 231 234 236 238 243 247 248 249 253 261 266 274 270 273 286 295 293 297 305 315 322 322 322 322 325 328 332 338 344 350 350 340 331 313 288 282 287 294 286 262 261 260 248
232 233 236 238 240 243 250 253 256 260 261 265 268 266 266 277 286 289 289 294 302 313 314 315 314 316 320 321 323 327 334 335 323 322 321 300 285 282 283 281 284 280 275 270
237 240 240 240 245 246 248 250 257 263 264 265 267 265 262 270 278 282 283 284 293 303 305 308 312 314 312 310 312 313 314 311 306 305 303 290 286 285 289 277 274 288 293 294
238 242 243 243 246 249 248 245 249 255 261 266 268 266 264 268 276 277 278 278 284 292 297 299 303 306 304 296 299 301 299 295 290 290 291 282 276 273 275 276 278 277 279 283
238 243 245 244 245 246 248 248 249 255 260 263 263 264 266 268 275 275 275 276 279 285 289 291 295 296 295 290 288 290 289 289 286 283 285 278 270 269 270 271 270 271 272 274
239 243 245 246 247 247 247 249 250 251 257 262 266 264 262 266 270 272 277 277 276 279 285 289 290 289 288 289 285 283 280 282 280 278 276 274 265 265 267 267 266 270 272 274
238 243 246 248 249 250 250 250 249 250 252 256 262 265 266 266 267 270 276 276 275 274 280 286 288 286 288 290 281 276 275 273 274 273 272 273 268 265 265 265 266 269 272 275
238 241 245 249 251 251 251 251 251 251 254 255 257 262 265 265 266 268 270 272 273 272 275 280 281 283 286 288 281 273 273 273 270 267 269 269 268 265 266 267 269 271 272 274
239 241 245 251 254 252 251 250 251 251 253 256 257 261 264 264 266 268 269 270 271 271 272 277 278 279 280 281 280 273 269 270 269 268 270 269 267 265 267 270 272 274 275 277
239 240 241 243 247 252 251 251 250 251 250 253 255 259 264 268 268 267 269 269 270 272 273 275 277 277 277 276 277 276 271 269 269 269 269 269 268 267 267 270 272 274 275 277
240 242 242 243 247 251 253 253 250 249 249 251 256 259 263 268 269 268 269 270 269 269 270 271 273 275 275 274 274 275 273 271 271 271 268 268 269 270 270 270 272 273 274 278
242 244 247 248 251 253 254 252 252 250 250 252 256 259 262 264 268 269 269 268 268 267 268 268 269 271 273 273 271 271 270 271 272 271 270 267 269 270 270 271 273 272 275 277
245 246 248 251 252 254 253 251 251 251 251 252 256 259 262 264 265 267 269 268 269 268 268 269 269 270 271 271 270 269 269 270 272 274 270 270 272 272 272 275 275 275 275 276
244 246 248 250 252 253 253 252 251 253 254 255 258 260 263 263 265 266 268 268 270 270 270 271 272 270 270 270 270 269 268 269 271 272 272 274 275 275 274 274 276 277 277 278
246 248 248 250 253 255 253 252 253 256 256 256 258 259 262 263 265 265 267 268 270 270 269 271 272 271 270 270 271 271 270 269 270 271 271 272 275 275 275 276 278 279 280 279
249 249 249 250 253 256 255 255 257 258 258 256 256 259 262 264 265 266 267 268 270 271 269 269 269 267 267 269 270 270 270 270 269 270 271 273 276 277 278 278 280 281 281 280
250 250 250 251 254 258 258 257 257 257 258 257 257 259 261 263 265 265 266 267 269 270 269 268 268 268 270 269 269 269 269 269 269 271 274 275 277 278 279 279 280 281 281 280
249 249 249 250 252 256 259 257 255 256 258 259 260 260 261 263 264 264 266 267 268 269 270 267 268 268 271 270 269 268 267 269 270 272 274 276 278 279 281 281 280 281 280 280
246 247 248 249 252 255 256 257 257 258 260 261 261 262 262 264 266 266 266 268 269 269 272 271 269 269 271 271 270 270 270 269 270 271 273 276 278 280 282 284 283 281 281 280
247 246 249 250 252 255 256 258 258 258 260 261 261 262 263 265 266 267 265 266 268 271 272 272 270 271 272 271 272 272 271 271 272 273 275 277 279 281 283 284 284 284 283 282
246 248 249 251 252 254 255 257 257 258 259 260 261 263 264 266 267 268 267 269 270 270 270 270 270 270 271 271 273 273 274 274 275 275 276 277 280 283 284 284 284 284 284 284
247 248 251 253 253 255 257 257 257 258 258 260 261 265 267 267 267 267 269 271 273 272 271 270 269 269 269 269 270 272 274 276 277 276 277 278 280 283 284 284 284 284 284 285
Height
5913 5916 5916 5918 5919 5920 5920 5921 5922 5922 5920 5920 5920 5919 5918 5917 5915 5914 5912 5910 5909 5907 5905 5903 5901 5899 5897 5896 5894 5892 5891 5890 5889 5888 5887 5886 5886 5886 5886 5886 5886 5886 5886 5886
5912 5913 5914 5915 5916 5917 5918 5919 5920 5920 5919 5919 5919 5919 5918 5916 5915 5914 5912 5911 5909 5907 5906 5904 5902 5900 5899 5897 5895 5893 5892 5891 5890 5889 5888 5887 5887 5887 5887 5887 5887 5887 5887 5887
5909 5911 5911 5913 5914 5915 5916 5917 5918 5918 5917 5918 5918 5918 5917 5916 5915 5914 5912 5911 5909 5907 5906 5904 5903 5901 5899 5897 5896 5894 5893 5892 5891 5890 5889 5888 5888 5888 5888 5888 5888 5888 5888 5888
5905 5907 5909 5910 5911 5912 5914 5915 5915 5915 5916 5916 5917 5918 5917 5915 5914 5913 5912 5910 5909 5907 5905 5904 5903 5901 5899 5898 5896 5895 5894 5892 5892 5891 5890 5889 5889 5889 5889 5889 5888 5888 5888 5888
5903 5904 5906 5907 5909 5910 5911 5912 5912 5913 5914 5915 5915 5916 5916 5914 5913 5912 5911 5909 5908 5907 5905 5904 5902 5901 5899 5898 5896 5895 5894 5893 5892 5891 5891 5890 5889 5889 5889 5889 5889 5888 5888 5888
5899 5901 5902 5904 5905 5906 5908 5909 5910 5910 5912 5912 5912 5913 5913 5912 5911 5910 5909 5908 5907 5906 5904 5903 5901 5900 5899 5897 5896 5895 5894 5893 5892 5891 5891 5890 5890 5889 5889 5889 5889 5888 5888 5888
5896 5897 5899 5900 5901 5903 5904 5907 5909 5910 5910 5910 5910 5909 5911 5909 5909 5908 5907 5906 5905 5904 5903 5902 5900 5899 5897 5896 5895 5894 5893 5892 5892 5891 5891 5890 5890 5889 5889 5889 5888 5888 5888 5888
5892 5894 5895 5896 5898 5899 5901 5903 5906 5907 5908 5908 5906 5906 5908 5906 5906 5905 5904 5904 5903 5902 5901 5900 5899 5897 5896 5895 5894 5893 5893 5892 5891 5890 5890 5889 5889 5889 5888 5888 5888 5888 5888 5887
5888 5890 5890 5892 5893 5895 5896 5898 5901 5902 5902 5903 5903 5903 5903 5903 5902 5902 5902 5901 5901 5900 5899 5898 5897 5895 5894 5893 5892 5891 5891 5890 5890 5889 5889 5888 5888 5888 5887 5887 5887 5886 5886 5886
5882 5884 5885 5887 5888 5890 5892 5894 5896 5897 5898 5899 5900 5899 5900 5899 5899 5899 5898 5898 5897 5896 5896 5895 5894 5893 5891 5890 5889 5889 5888 5888 5888 5887 5887 5886 5886 5886 5886 5885 5885 5885 5884 5884
5877 5879 5880 5881 5883 5885 5887 5888 5889 5891 5893 5894 5896 5898 5895 5895 5895 5895 5895 5894 5893 5893 5892 5891 5890 5889 5888 5887 5886 5886 5885 5885 5885 5885 5884 5884 5884 5883 5883 5883 5883 5882 5882 5881
5871 5873 5875 5876 5877 5878 5880 5882 5884 5886 5887 5888 5890 5894 5890 5890 5890 5890 5890 5890 5889 5889 5888 5887 5886 5885 5884 5883 5882 5882 5881 5881 5881 5881 5881 5881 5881 5880 5880 5880 5880 5879 5879 5878
5865 5868 5869 5871 5873 5873 5874 5876 5878 5880 5882 5883 5885 5888 5885 5885 5885 5886 5885 5885 5884 5884 5883 5883 5882 5881 5880 5879 5878 5877 5877 5877 5877 5877 5877 5877 5877 5877 5877 5877 5876 5876 5875 5875
5860 5862 5865 5868 5868 5867 5867 5869 5871 5874 5876 5877 5879 5880 5880 5879 5879 5880 5879 5879 5879 5879 5878 5877 5877 5876 5876 5875 5874 5873 5873 5873 5873 5873 5872 5872 5872 5872 5872 5872 5872 5871 5871 5870
5854 5856 5857 5859 5860 5861 5861 5863 5864 5866 5869 5871 5873 5873 5874 5873 5874 5874 5874 5874 5873 5873 5873 5872 5872 5871 5871 5870 5870 5869 5869 5868 5868 5868 5867 5867 5867 5867 5867 5867 5866 5866 5866 5865
5848 5850 5851 5853 5854 5854 5855 5857 5858 5860 5862 5864 5865 5867 5867 5867 5867 5867 5868 5868 5868 5868 5867 5866 5866 5866 5866 5865 5865 5864 5864 5864 5863 5863 5862 5862 5862 5862 5862 5861 5861 5860 5860 5859
5842 5844 5846 5847 5847 5848 5849 5851 5852 5854 5855 5857 5859 5861 5860 5860 5860 5861 5861 5861 5861 5862 5861 5860 5860 5860 5860 5860 5859 5859 5859 5859 5858 5858 5857 5857 5857 5856 5856 5855 5855 5854 5853 5852
5836 5838 5839 5841 5842 5842 5846 5845 5846 5847 5849 5850 5851 5852 5853 5853 5853 5854 5854 5854 5855 5855 5855 5854 5854 5854 5854 5853 5853 5852 5852 5852 5852 5852 5851 5851 5851 5850 5849 5849 5848 5847 5846 5845
5829 5831 5833 5834 5835 5835 5838 5838 5839 5841 5842 5843 5844 5844 5846 5846 5847 5847 5847 5848 5848 5848 5848 5848 5848 5847 5847 5847 5846 5846 5845 5845 5845 5845 5845 5845 5844 5843 5842 5841 5840 5839 5837 5836
5823 5824 5827 5827 5829 5830 5833 5832 5833 5835 5835 5836 5837 5837 5839 5840 5840 5841 5840 5841 5841 5841 5841 5841 5841 5840 5841 5840 5840 5839 5839 5838 5838 5838 5837 5837 5836 5836 5834 5833 5832 5830 5829 5828
5816 5818 5819 5820 5822 5823 5825 5826 5827 5829 5830 5830 5830 5831 5832 5832 5833 5833 5833 5833 5834 5834 5834 5834 5834 5834 5833 5833 5832 5832 5831 5831 5831 5830 5830 5829 5829 5828 5826 5825 5824 5822 5820 5819
5810 5812 5813 5814 5815 5819 5818 5819 5820 5821 5822 5822 5823 5824 5825 5825 5825 5825 5826 5826 5826 5826 5826 5826 5826 5826 5826 5825 5825 5824 5824 5824 5823 5823 5822 5822 5821 5820 5818 5817 5815 5813 5812 5810
5803 5805 5806 5808 5810 5810 5811 5812 5813 5814 5815 5815 5816 5817 5818 5818 5818 5818 5819 5819 5819 5819 5819 5818 5818 5818 5818 5817 5817 5817 5816 5816 5816 5815 5815 5814 5813 5811 5810 5808 5806 5805 5803 5801
5796 5798 5799 5800 5802 5803 5804 5805 5806 5807 5808 5808 5809 5809 5810 5811 5811 5811 5811 5811 5811 5811 5811 5811 5811 5810 5810 5810 5809 5809 5808 5808 5808 5807 5806 5806 5805 5803 5802 5800 5798 5796 5794 5793
5789 5791 5792 5793 5795 5796 5797 5798 5799 5800 5800 5801 5801 5802 5802 5803 5803 5804 5804 5804 5804 5803 5803 5803 5803 5803 5802 5802 5802 5801 5801 5800 5800 5799 5798 5797 5796 5795 5793 5792 5790 5788 5786 5784
5782 5784 5786 5787 5788 5789 5790 5791 5791 5792 5793 5794 5794 5795 5795 5795 5796 5796 5796 5796 5796 5795 5795 5795 5795 5795 5795 5795 5794 5794 5793 5793 5792 5791 5790 5789 5788 5786 5785 5783 5782 5779 5778 5776